Back to catalog

CZ-4C R/B

AliveSSO
NORAD 40276·ROCKET BODY·🇨🇳 China

Launched Oct 20, 2014 from Taiyuan Satellite Launch Center

Loading…

Next Passes (next 24 hours)

TLE

FreshSource: Space-Track

Epoch: Sep 14, 2026, 12:55 UTC

1 40276U 14063B   26257.53852925 -.00000019  00000-0  44907-4 0  9993
2 40276 100.2321 184.7880 0143185  39.1233 322.0146 13.43039704583502

Track CZ-4C R/B in real time with AllMySat

Download on the App Store